Time,TemperatureF,DewpointF,PressureIn,WindDirection,WindDirectionDegrees,WindSpeedMPH,WindSpeedGustMPH,Humidity,HourlyPrecipIn,Conditions,Clouds,dailyrainin,SoftwareType,DateUTC
2013-02-28 00:02:00,38.7,36.9,29.64,West,268,0.0,0.0,93,0.00,,,0.00,Wunderground v.1.15,2013-02-28 05:02:00,
2013-02-28 00:12:00,38.6,36.8,29.64,West,268,0.0,0.0,93,0.00,,,0.00,Wunderground v.1.15,2013-02-28 05:12:00,
2013-02-28 00:17:00,38.5,36.7,29.64,West,268,0.0,0.0,93,0.00,,,0.00,Wunderground v.1.15,2013-02-28 05:17:00,
2013-02-28 00:27:00,38.2,36.4,29.64,West,268,0.0,0.0,93,0.00,,,0.00,Wunderground v.1.15,2013-02-28 05:27:00,
2013-02-28 00:32:00,38.0,36.2,29.64,West,268,0.0,0.0,93,0.00,,,0.00,Wunderground v.1.15,2013-02-28 05:32:00,
2013-02-28 00:42:00,37.6,35.8,29.64,West,268,0.0,0.0,93,0.00,,,0.00,Wunderground v.1.15,2013-02-28 05:42:00,
2013-02-28 00:47:00,37.4,35.6,29.64,West,268,0.0,0.0,93,0.00,,,0.00,Wunderground v.1.15,2013-02-28 05:47:00,
2013-02-28 00:57:00,37.1,35.5,29.63,West,268,0.0,0.0,94,0.00,,,0.00,Wunderground v.1.15,2013-02-28 05:57:00,
2013-02-28 01:02:00,37.0,35.2,29.63,West,268,0.0,0.0,93,0.00,,,0.00,Wunderground v.1.15,2013-02-28 06:02:00,
2013-02-28 01:12:00,36.7,35.1,29.63,West,268,0.0,0.0,94,0.00,,,0.00,Wunderground v.1.15,2013-02-28 06:12:00,
2013-02-28 01:17:00,36.7,35.1,29.63,West,268,0.0,0.0,94,0.00,,,0.00,Wunderground v.1.15,2013-02-28 06:17:00,
2013-02-28 01:27:00,36.5,34.9,29.63,West,268,0.0,0.0,94,0.00,,,0.00,Wunderground v.1.15,2013-02-28 06:27:00,
2013-02-28 01:32:00,36.4,34.8,29.63,West,268,0.0,0.0,94,0.00,,,0.00,Wunderground v.1.15,2013-02-28 06:32:00,
2013-02-28 01:42:00,36.3,34.7,29.64,West,268,0.0,0.0,94,0.00,,,0.00,Wunderground v.1.15,2013-02-28 06:42:00,
2013-02-28 01:47:00,36.3,35.0,29.63,West,268,0.0,0.0,95,0.00,,,0.00,Wunderground v.1.15,2013-02-28 06:47:00,
2013-02-28 01:57:00,36.4,35.1,29.63,West,268,0.0,0.0,95,0.00,,,0.00,Wunderground v.1.15,2013-02-28 06:57:00,
2013-02-28 02:02:00,36.4,35.1,29.63,West,268,0.0,0.0,95,0.00,,,0.00,Wunderground v.1.15,2013-02-28 07:02:00,
2013-02-28 02:12:00,36.5,35.2,29.62,West,268,0.0,0.0,95,0.00,,,0.00,Wunderground v.1.15,2013-02-28 07:12:00,
2013-02-28 02:17:00,36.6,35.3,29.62,West,268,0.0,0.0,95,0.00,,,0.00,Wunderground v.1.15,2013-02-28 07:17:00,
2013-02-28 02:27:00,36.8,35.5,29.62,West,268,0.0,0.0,95,0.00,,,0.00,Wunderground v.1.15,2013-02-28 07:27:00,
2013-02-28 02:32:00,36.7,35.4,29.62,West,268,0.0,0.0,95,0.00,,,0.00,Wunderground v.1.15,2013-02-28 07:32:00,
2013-02-28 02:42:00,36.6,35.3,29.61,West,268,0.0,0.0,95,0.00,,,0.00,Wunderground v.1.15,2013-02-28 07:42:00,
2013-02-28 02:47:00,36.5,35.2,29.62,West,268,0.0,0.0,95,0.00,,,0.00,Wunderground v.1.15,2013-02-28 07:47:00,
2013-02-28 02:57:00,36.4,35.1,29.62,West,268,0.0,0.0,95,0.00,,,0.00,Wunderground v.1.15,2013-02-28 07:57:00,
2013-02-28 03:02:00,36.3,35.0,29.62,West,268,0.0,0.0,95,0.00,,,0.00,Wunderground v.1.15,2013-02-28 08:02:00,
2013-02-28 03:11:00,36.2,34.9,29.62,West,268,0.0,0.0,95,0.00,,,0.00,Wunderground v.1.15,2013-02-28 08:11:00,
2013-02-28 03:17:00,36.2,34.9,29.63,West,268,0.0,0.0,95,0.00,,,0.00,Wunderground v.1.15,2013-02-28 08:17:00,
2013-02-28 03:26:00,36.2,34.9,29.62,West,268,0.0,0.0,95,0.00,,,0.00,Wunderground v.1.15,2013-02-28 08:26:00,
2013-02-28 03:32:00,36.2,34.9,29.62,West,268,0.0,0.0,95,0.00,,,0.00,Wunderground v.1.15,2013-02-28 08:32:00,
2013-02-28 03:41:00,36.2,34.9,29.62,West,268,0.0,0.0,95,0.00,,,0.00,Wunderground v.1.15,2013-02-28 08:41:00,
2013-02-28 03:47:00,36.2,34.9,29.62,West,268,0.0,0.0,95,0.00,,,0.00,Wunderground v.1.15,2013-02-28 08:47:00,
2013-02-28 03:56:00,36.2,34.9,29.62,West,268,0.0,0.0,95,0.00,,,0.00,Wunderground v.1.15,2013-02-28 08:56:00,
2013-02-28 04:02:00,36.2,34.9,29.62,West,268,0.0,0.0,95,0.00,,,0.00,Wunderground v.1.15,2013-02-28 09:02:00,
2013-02-28 04:11:00,36.3,35.0,29.61,West,268,0.0,0.0,95,0.00,,,0.00,Wunderground v.1.15,2013-02-28 09:11:00,
2013-02-28 04:17:00,36.2,34.9,29.62,West,268,0.0,0.0,95,0.00,,,0.00,Wunderground v.1.15,2013-02-28 09:17:00,
2013-02-28 04:26:00,36.2,34.9,29.62,West,268,0.0,0.0,95,0.00,,,0.00,Wunderground v.1.15,2013-02-28 09:26:00,
2013-02-28 04:32:00,36.2,35.2,29.62,West,268,0.0,0.0,96,0.00,,,0.00,Wunderground v.1.15,2013-02-28 09:32:00,
2013-02-28 04:41:00,36.3,35.3,29.62,West,268,0.0,0.0,96,0.00,,,0.00,Wunderground v.1.15,2013-02-28 09:41:00,
2013-02-28 04:47:00,36.4,35.4,29.62,West,268,0.0,0.0,96,0.00,,,0.00,Wunderground v.1.15,2013-02-28 09:47:00,
2013-02-28 04:56:00,36.4,35.4,29.62,West,268,0.0,0.0,96,0.00,,,0.00,Wunderground v.1.15,2013-02-28 09:56:00,
2013-02-28 05:02:00,36.4,35.4,29.63,West,268,0.0,0.0,96,0.00,,,0.00,Wunderground v.1.15,2013-02-28 10:02:00,
2013-02-28 05:11:00,36.2,35.2,29.63,West,268,0.0,0.0,96,0.00,,,0.00,Wunderground v.1.15,2013-02-28 10:11:00,
2013-02-28 05:22:00,35.9,34.9,29.63,West,268,0.0,0.0,96,0.00,,,0.00,Wunderground v.1.15,2013-02-28 10:22:00,
2013-02-28 05:33:00,35.8,34.8,29.63,West,268,0.0,0.0,96,0.00,,,0.00,Wunderground v.1.15,2013-02-28 10:33:00,
2013-02-28 05:42:00,35.8,34.8,29.63,West,268,0.0,0.0,96,0.00,,,0.00,Wunderground v.1.15,2013-02-28 10:42:00,
2013-02-28 05:48:00,35.8,34.8,29.63,West,268,0.0,0.0,96,0.00,,,0.00,Wunderground v.1.15,2013-02-28 10:48:00,
2013-02-28 05:57:00,35.7,34.7,29.63,West,268,0.0,0.0,96,0.00,,,0.00,Wunderground v.1.15,2013-02-28 10:57:00,
2013-02-28 06:03:00,35.7,34.7,29.63,West,268,0.0,0.0,96,0.00,,,0.00,Wunderground v.1.15,2013-02-28 11:03:00,
2013-02-28 06:12:00,35.8,34.8,29.63,West,268,0.0,0.0,96,0.00,,,0.00,Wunderground v.1.15,2013-02-28 11:12:00,
2013-02-28 06:18:00,35.8,34.8,29.63,West,268,0.0,0.0,96,0.00,,,0.00,Wunderground v.1.15,2013-02-28 11:18:00,
2013-02-28 06:27:00,35.9,34.9,29.63,West,268,0.0,0.0,96,0.00,,,0.00,Wunderground v.1.15,2013-02-28 11:27:00,
2013-02-28 06:33:00,35.9,34.9,29.63,West,268,0.0,0.0,96,0.00,,,0.00,Wunderground v.1.15,2013-02-28 11:33:00,
2013-02-28 06:42:00,35.9,34.9,29.63,West,268,0.0,0.0,96,0.00,,,0.00,Wunderground v.1.15,2013-02-28 11:42:00,
2013-02-28 06:48:00,35.9,34.9,29.63,West,268,0.0,0.0,96,0.00,,,0.00,Wunderground v.1.15,2013-02-28 11:48:00,
2013-02-28 06:57:00,35.6,34.6,29.63,West,268,0.0,0.0,96,0.00,,,0.00,Wunderground v.1.15,2013-02-28 11:57:00,
2013-02-28 07:03:00,35.6,34.6,29.63,West,268,0.0,0.0,96,0.00,,,0.00,Wunderground v.1.15,2013-02-28 12:03:00,
2013-02-28 07:12:00,35.5,34.5,29.63,West,268,0.0,0.0,96,0.00,,,0.00,Wunderground v.1.15,2013-02-28 12:12:00,
2013-02-28 07:18:00,35.6,34.6,29.63,West,268,0.0,0.0,96,0.00,,,0.00,Wunderground v.1.15,2013-02-28 12:18:00,
2013-02-28 07:27:00,36.1,35.3,29.63,West,268,0.0,1.0,97,0.00,,,0.00,Wunderground v.1.15,2013-02-28 12:27:00,
2013-02-28 07:33:00,36.6,35.8,29.64,West,268,0.0,1.0,97,0.00,,,0.00,Wunderground v.1.15,2013-02-28 12:33:00,
2013-02-28 07:42:00,37.3,35.7,29.64,West,268,0.0,0.0,94,0.00,,,0.00,Wunderground v.1.15,2013-02-28 12:42:00,
2013-02-28 07:48:00,37.7,35.6,29.64,West,268,1.0,1.0,92,0.00,,,0.00,Wunderground v.1.15,2013-02-28 12:48:00,
2013-02-28 07:57:00,38.4,35.4,29.64,West,268,1.0,2.0,89,0.00,,,0.00,Wunderground v.1.15,2013-02-28 12:57:00,
2013-02-28 08:03:00,38.7,35.5,29.64,West,268,1.0,1.0,88,0.00,,,0.00,Wunderground v.1.15,2013-02-28 13:03:00,
2013-02-28 08:12:00,39.0,35.5,29.65,West,268,1.0,1.0,87,0.00,,,0.00,Wunderground v.1.15,2013-02-28 13:12:00,
2013-02-28 08:18:00,39.0,35.2,29.65,West,268,1.0,1.0,86,0.00,,,0.00,Wunderground v.1.15,2013-02-28 13:18:00,
2013-02-28 08:27:00,39.1,35.0,29.65,West,268,0.0,2.0,85,0.00,,,0.00,Wunderground v.1.15,2013-02-28 13:27:00,
2013-02-28 08:33:00,39.1,35.0,29.65,West,268,0.0,0.0,85,0.00,,,0.00,Wunderground v.1.15,2013-02-28 13:33:00,
2013-02-28 08:42:00,39.2,35.4,29.64,West,268,0.0,0.0,86,0.00,,,0.00,Wunderground v.1.15,2013-02-28 13:42:00,
2013-02-28 08:48:00,39.3,34.9,29.64,West,268,0.0,0.0,84,0.00,,,0.00,Wunderground v.1.15,2013-02-28 13:48:00,
2013-02-28 08:57:00,39.7,35.3,29.64,West,268,0.0,2.0,84,0.00,,,0.00,Wunderground v.1.15,2013-02-28 13:57:00,
2013-02-28 09:02:00,40.0,35.6,29.64,West,268,0.0,2.0,84,0.00,,,0.00,Wunderground v.1.15,2013-02-28 14:02:00,
2013-02-28 09:12:00,40.2,34.5,29.64,West,268,2.0,2.0,80,0.00,,,0.00,Wunderground v.1.15,2013-02-28 14:12:00,
2013-02-28 09:17:00,40.5,34.8,29.65,West,268,1.0,2.0,80,0.00,,,0.00,Wunderground v.1.15,2013-02-28 14:17:00,
2013-02-28 09:27:00,41.1,34.8,29.65,WSW,258,2.0,2.0,78,0.00,,,0.00,Wunderground v.1.15,2013-02-28 14:27:00,
2013-02-28 09:32:00,41.6,35.2,29.65,South,188,2.0,2.0,78,0.00,,,0.00,Wunderground v.1.15,2013-02-28 14:32:00,
2013-02-28 09:42:00,42.2,35.2,29.64,South,182,2.0,4.0,76,0.00,,,0.00,Wunderground v.1.15,2013-02-28 14:42:00,
2013-02-28 09:47:00,42.2,35.2,29.64,South,181,2.0,4.0,76,0.00,,,0.00,Wunderground v.1.15,2013-02-28 14:47:00,
2013-02-28 09:57:00,42.3,35.6,29.64,SSW,196,2.0,4.0,77,0.00,,,0.00,Wunderground v.1.15,2013-02-28 14:57:00,
2013-02-28 10:02:00,42.3,34.9,29.63,SSE,150,3.0,3.0,75,0.00,,,0.00,Wunderground v.1.15,2013-02-28 15:02:00,
2013-02-28 10:12:00,42.9,36.2,29.63,South,187,2.0,2.0,77,0.00,,,0.00,Wunderground v.1.15,2013-02-28 15:12:00,
2013-02-28 10:17:00,43.2,36.1,29.63,South,188,2.0,2.0,76,0.00,,,0.00,Wunderground v.1.15,2013-02-28 15:17:00,
2013-02-28 10:27:00,44.5,36.4,29.63,WSW,245,1.0,2.0,73,0.00,,,0.00,Wunderground v.1.15,2013-02-28 15:27:00,
2013-02-28 10:32:00,45.1,35.5,29.62,SSE,167,1.0,1.0,69,0.00,,,0.00,Wunderground v.1.15,2013-02-28 15:32:00,
2013-02-28 10:42:00,45.4,35.1,29.62,SW,224,2.0,2.0,67,0.00,,,0.00,Wunderground v.1.15,2013-02-28 15:42:00,
2013-02-28 10:47:00,45.9,35.9,29.62,WSW,250,1.0,2.0,68,0.00,,,0.00,Wunderground v.1.15,2013-02-28 15:47:00,
2013-02-28 10:57:00,47.0,37.4,29.62,WSW,249,1.0,5.0,69,0.00,,,0.00,Wunderground v.1.15,2013-02-28 15:57:00,
2013-02-28 11:02:00,47.7,36.1,29.62,WSW,249,1.0,1.0,64,0.00,,,0.00,Wunderground v.1.15,2013-02-28 16:02:00,
2013-02-28 11:12:00,46.7,35.2,29.62,WSW,253,3.0,3.0,64,0.00,,,0.00,Wunderground v.1.15,2013-02-28 16:12:00,
2013-02-28 11:17:00,46.9,35.7,29.62,WSW,253,2.0,3.0,65,0.00,,,0.00,Wunderground v.1.15,2013-02-28 16:17:00,
2013-02-28 11:27:00,46.8,34.9,29.62,WSW,255,1.0,2.0,63,0.00,,,0.00,Wunderground v.1.15,2013-02-28 16:27:00,
2013-02-28 11:32:00,46.6,34.3,29.62,WSW,255,1.0,1.0,62,0.00,,,0.00,Wunderground v.1.15,2013-02-28 16:32:00,
2013-02-28 11:42:00,45.9,33.6,29.61,WSW,255,1.0,1.0,62,0.00,,,0.00,Wunderground v.1.15,2013-02-28 16:42:00,
2013-02-28 11:47:00,45.6,33.3,29.61,SW,230,1.0,2.0,62,0.00,,,0.00,Wunderground v.1.15,2013-02-28 16:47:00,
2013-02-28 11:57:00,45.4,33.5,29.61,WSW,251,1.0,1.0,63,0.00,,,0.00,Wunderground v.1.15,2013-02-28 16:57:00,
2013-02-28 12:02:00,45.5,32.4,29.61,WSW,255,1.0,2.0,60,0.00,,,0.00,Wunderground v.1.15,2013-02-28 17:02:00,
2013-02-28 12:12:00,45.5,33.2,29.61,WSW,255,1.0,1.0,62,0.00,,,0.00,Wunderground v.1.15,2013-02-28 17:12:00,
2013-02-28 12:17:00,45.3,33.0,29.60,WSW,255,1.0,1.0,62,0.00,,,0.00,Wunderground v.1.15,2013-02-28 17:17:00,
2013-02-28 12:27:00,45.0,32.3,29.60,West,259,1.0,1.0,61,0.00,,,0.00,Wunderground v.1.15,2013-02-28 17:27:00,
2013-02-28 12:32:00,44.9,32.3,29.60,West,259,1.0,1.0,61,0.00,,,0.00,Wunderground v.1.15,2013-02-28 17:32:00,
2013-02-28 12:42:00,44.9,32.3,29.60,West,259,1.0,1.0,61,0.00,,,0.00,Wunderground v.1.15,2013-02-28 17:42:00,
2013-02-28 12:47:00,44.9,32.3,29.60,West,259,1.0,3.0,61,0.00,,,0.00,Wunderground v.1.15,2013-02-28 17:47:00,
2013-02-28 12:57:00,45.0,32.3,29.59,West,259,1.0,3.0,61,0.00,,,0.00,Wunderground v.1.15,2013-02-28 17:57:00,
2013-02-28 13:02:00,45.1,32.0,29.59,West,259,1.0,1.0,60,0.00,,,0.00,Wunderground v.1.15,2013-02-28 18:02:00,
2013-02-28 13:12:00,45.4,32.3,29.59,West,259,0.0,0.0,60,0.00,,,0.00,Wunderground v.1.15,2013-02-28 18:12:00,
2013-02-28 13:17:00,45.6,31.7,29.59,West,259,1.0,1.0,58,0.00,,,0.00,Wunderground v.1.15,2013-02-28 18:17:00,
2013-02-28 13:27:00,45.4,30.6,29.59,West,259,1.0,2.0,56,0.00,,,0.00,Wunderground v.1.15,2013-02-28 18:27:00,
2013-02-28 13:32:00,45.0,31.1,29.59,WSW,254,2.0,2.0,58,0.00,,,0.00,Wunderground v.1.15,2013-02-28 18:32:00,
2013-02-28 13:41:00,44.5,31.5,29.60,West,260,2.0,4.0,60,0.00,,,0.00,Wunderground v.1.15,2013-02-28 18:41:00,
2013-02-28 13:47:00,44.3,31.7,29.60,West,260,2.0,4.0,61,0.00,,,0.00,Wunderground v.1.15,2013-02-28 18:47:00,
2013-02-28 13:56:00,43.9,32.1,29.60,West,260,1.0,2.0,63,0.00,,,0.00,Wunderground v.1.15,2013-02-28 18:56:00,
2013-02-28 14:02:00,43.8,32.0,29.60,West,260,1.0,1.0,63,0.00,,,0.00,Wunderground v.1.15,2013-02-28 19:02:00,
2013-02-28 14:11:00,44.0,31.8,29.60,WSW,255,0.0,1.0,62,0.00,,,0.00,Wunderground v.1.15,2013-02-28 19:11:00,
2013-02-28 14:17:00,44.2,31.6,29.60,West,261,1.0,1.0,61,0.00,,,0.00,Wunderground v.1.15,2013-02-28 19:17:00,
2013-02-28 14:26:00,44.4,30.1,29.60,West,261,0.0,1.0,57,0.00,,,0.00,Wunderground v.1.15,2013-02-28 19:26:00,
2013-02-28 14:32:00,44.6,29.9,29.60,WSW,257,1.0,1.0,56,0.00,,,0.00,Wunderground v.1.15,2013-02-28 19:32:00,
2013-02-28 14:41:00,44.5,29.8,29.60,WSW,240,2.0,2.0,56,0.00,,,0.00,Wunderground v.1.15,2013-02-28 19:41:00,
2013-02-28 14:47:00,44.3,30.0,29.60,SSW,194,1.0,4.0,57,0.00,,,0.00,Wunderground v.1.15,2013-02-28 19:47:00,
2013-02-28 14:56:00,44.2,30.8,29.60,SSW,209,2.0,4.0,59,0.00,,,0.00,Wunderground v.1.15,2013-02-28 19:56:00,
2013-02-28 15:02:00,44.2,31.2,29.59,South,189,2.0,2.0,60,0.00,,,0.00,Wunderground v.1.15,2013-02-28 20:02:00,
2013-02-28 15:11:00,44.3,31.3,29.59,South,190,1.0,1.0,60,0.00,,,0.00,Wunderground v.1.15,2013-02-28 20:11:00,
2013-02-28 15:17:00,44.7,31.2,29.59,SSW,195,1.0,1.0,59,0.00,,,0.00,Wunderground v.1.15,2013-02-28 20:17:00,
2013-02-28 15:26:00,44.7,30.0,29.58,WSW,250,1.0,1.0,56,0.00,,,0.00,Wunderground v.1.15,2013-02-28 20:26:00,
2013-02-28 15:32:00,44.9,30.6,29.58,WSW,250,1.0,1.0,57,0.00,,,0.00,Wunderground v.1.15,2013-02-28 20:32:00,
2013-02-28 15:41:00,44.8,30.0,29.58,WSW,251,1.0,2.0,56,0.00,,,0.00,Wunderground v.1.15,2013-02-28 20:41:00,
2013-02-28 15:47:00,44.7,30.0,29.58,SW,217,1.0,2.0,56,0.00,,,0.00,Wunderground v.1.15,2013-02-28 20:47:00,
2013-02-28 15:56:00,44.7,30.8,29.59,WSW,252,1.0,1.0,58,0.00,,,0.00,Wunderground v.1.15,2013-02-28 20:56:00,
2013-02-28 16:02:00,44.5,31.1,29.59,West,259,2.0,3.0,59,0.00,,,0.00,Wunderground v.1.15,2013-02-28 21:02:00,
2013-02-28 16:11:00,44.0,31.0,29.59,West,259,1.0,1.0,60,0.00,,,0.00,Wunderground v.1.15,2013-02-28 21:11:00,
2013-02-28 16:18:00,43.6,30.6,29.59,West,259,1.0,1.0,60,0.00,,,0.00,Wunderground v.1.15,2013-02-28 21:18:00,
2013-02-28 16:27:00,43.3,30.7,29.59,West,259,1.0,1.0,61,0.00,,,0.00,Wunderground v.1.15,2013-02-28 21:27:00,
2013-02-28 16:33:00,43.2,31.1,29.59,West,259,1.0,1.0,62,0.00,,,0.00,Wunderground v.1.15,2013-02-28 21:33:00,
2013-02-28 16:42:00,43.1,31.0,29.59,West,259,0.0,3.0,62,0.00,,,0.00,Wunderground v.1.15,2013-02-28 21:42:00,
2013-02-28 16:48:00,42.9,31.2,29.59,WSW,257,1.0,3.0,63,0.00,,,0.00,Wunderground v.1.15,2013-02-28 21:48:00,
2013-02-28 16:57:00,42.5,30.8,29.59,WSW,257,1.0,1.0,63,0.00,,,0.00,Wunderground v.1.15,2013-02-28 21:57:00,
2013-02-28 17:03:00,42.3,30.6,29.59,WSW,257,1.0,1.0,63,0.00,,,0.00,Wunderground v.1.15,2013-02-28 22:03:00,
2013-02-28 17:12:00,42.0,31.1,29.60,WSW,257,0.0,0.0,65,0.00,,,0.00,Wunderground v.1.15,2013-02-28 22:12:00,
2013-02-28 17:18:00,41.8,31.3,29.60,WSW,257,0.0,1.0,66,0.00,,,0.00,Wunderground v.1.15,2013-02-28 22:18:00,
2013-02-28 17:27:00,41.6,31.4,29.60,WSW,257,0.0,0.0,67,0.00,,,0.00,Wunderground v.1.15,2013-02-28 22:27:00,
2013-02-28 17:33:00,41.5,31.4,29.60,WSW,257,0.0,0.0,67,0.00,,,0.00,Wunderground v.1.15,2013-02-28 22:33:00,
2013-02-28 17:42:00,41.4,31.6,29.60,WSW,257,0.0,0.0,68,0.00,,,0.00,Wunderground v.1.15,2013-02-28 22:42:00,
2013-02-28 17:48:00,41.1,31.7,29.61,WSW,257,0.0,0.0,69,0.00,,,0.00,Wunderground v.1.15,2013-02-28 22:48:00,
2013-02-28 17:57:00,40.8,31.8,29.61,WSW,257,0.0,0.0,70,0.00,,,0.00,Wunderground v.1.15,2013-02-28 22:57:00,
2013-02-28 18:03:00,40.6,31.6,29.61,WSW,257,0.0,0.0,70,0.00,,,0.00,Wunderground v.1.15,2013-02-28 23:03:00,
2013-02-28 18:12:00,40.5,31.8,29.62,WSW,257,0.0,0.0,71,0.00,,,0.00,Wunderground v.1.15,2013-02-28 23:12:00,
2013-02-28 18:18:00,40.4,32.1,29.62,WSW,257,0.0,0.0,72,0.00,,,0.00,Wunderground v.1.15,2013-02-28 23:18:00,
2013-02-28 18:27:00,40.1,31.8,29.63,WSW,257,0.0,0.0,72,0.00,,,0.00,Wunderground v.1.15,2013-02-28 23:27:00,
2013-02-28 18:33:00,40.0,31.7,29.63,WSW,257,0.0,0.0,72,0.00,,,0.00,Wunderground v.1.15,2013-02-28 23:33:00,
2013-02-28 18:42:00,39.9,31.9,29.63,WSW,239,0.0,0.0,73,0.00,,,0.00,Wunderground v.1.15,2013-02-28 23:42:00,
2013-02-28 18:48:00,40.0,31.4,29.63,WSW,256,1.0,1.0,71,0.00,,,0.00,Wunderground v.1.15,2013-02-28 23:48:00,
2013-02-28 18:57:00,40.1,31.8,29.64,WSW,256,1.0,2.0,72,0.00,,,0.00,Wunderground v.1.15,2013-02-28 23:57:00,
2013-02-28 19:03:00,40.1,31.4,29.64,WSW,256,0.0,0.0,71,0.00,,,0.00,Wunderground v.1.15,2013-03-01 00:03:00,
2013-02-28 19:12:00,40.2,32.6,29.64,WSW,256,0.0,0.0,74,0.00,,,0.00,Wunderground v.1.15,2013-03-01 00:12:00,
2013-02-28 19:17:00,40.1,32.8,29.64,WSW,256,0.0,0.0,75,0.00,,,0.00,Wunderground v.1.15,2013-03-01 00:17:00,
2013-02-28 19:27:00,40.0,32.7,29.64,WSW,256,0.0,0.0,75,0.00,,,0.00,Wunderground v.1.15,2013-03-01 00:27:00,
2013-02-28 19:32:00,39.9,32.6,29.64,WSW,256,0.0,0.0,75,0.00,,,0.00,Wunderground v.1.15,2013-03-01 00:32:00,
2013-02-28 19:42:00,39.6,32.7,29.64,WSW,256,0.0,0.0,76,0.00,,,0.00,Wunderground v.1.15,2013-03-01 00:42:00,
2013-02-28 19:47:00,39.4,32.5,29.64,WSW,256,0.0,0.0,76,0.00,,,0.00,Wunderground v.1.15,2013-03-01 00:47:00,
2013-02-28 19:57:00,39.0,32.1,29.65,WSW,256,0.0,0.0,76,0.00,,,0.00,Wunderground v.1.15,2013-03-01 00:57:00,
2013-02-28 20:02:00,38.8,31.9,29.65,WSW,256,0.0,0.0,76,0.00,,,0.00,Wunderground v.1.15,2013-03-01 01:02:00,
2013-02-28 20:12:00,38.2,31.6,29.65,WSW,256,1.0,1.0,77,0.00,,,0.00,Wunderground v.1.15,2013-03-01 01:12:00,
2013-02-28 20:17:00,38.0,31.7,29.65,WSW,256,0.0,1.0,78,0.00,,,0.00,Wunderground v.1.15,2013-03-01 01:17:00,
2013-02-28 20:27:00,37.9,32.0,29.65,South,189,1.0,2.0,79,0.00,,,0.00,Wunderground v.1.15,2013-03-01 01:27:00,
2013-02-28 20:33:00,37.7,32.1,29.65,South,191,1.0,1.0,80,0.00,,,0.00,Wunderground v.1.15,2013-03-01 01:33:00,
2013-02-28 20:42:00,37.3,32.0,29.65,South,191,0.0,0.0,81,0.00,,,0.00,Wunderground v.1.15,2013-03-01 01:42:00,
2013-02-28 20:47:00,36.9,32.2,29.65,South,184,1.0,2.0,83,0.00,,,0.00,Wunderground v.1.15,2013-03-01 01:47:00,
2013-02-28 20:57:00,36.5,32.4,29.66,South,189,2.0,2.0,85,0.00,,,0.00,Wunderground v.1.15,2013-03-01 01:57:00,
2013-02-28 21:02:00,36.3,32.2,29.66,South,189,1.0,1.0,85,0.00,,,0.00,Wunderground v.1.15,2013-03-01 02:02:00,
2013-02-28 21:12:00,35.9,32.1,29.66,South,189,0.0,1.0,86,0.00,,,0.00,Wunderground v.1.15,2013-03-01 02:12:00,
2013-02-28 21:17:00,35.8,32.3,29.67,South,189,0.0,1.0,87,0.00,,,0.00,Wunderground v.1.15,2013-03-01 02:17:00,
2013-02-28 21:27:00,35.5,32.3,29.67,South,189,0.0,0.0,88,0.00,,,0.00,Wunderground v.1.15,2013-03-01 02:27:00,
2013-02-28 21:32:00,35.5,32.3,29.67,South,189,0.0,0.0,88,0.00,,,0.00,Wunderground v.1.15,2013-03-01 02:32:00,
2013-02-28 21:42:00,35.3,32.1,29.67,South,189,0.0,0.0,88,0.00,,,0.00,Wunderground v.1.15,2013-03-01 02:42:00,
2013-02-28 21:47:00,35.3,32.4,29.67,South,184,0.0,0.0,89,0.00,,,0.00,Wunderground v.1.15,2013-03-01 02:47:00,
2013-02-28 21:57:00,35.0,32.1,29.67,South,184,0.0,0.0,89,0.00,,,0.00,Wunderground v.1.15,2013-03-01 02:57:00,
2013-02-28 22:02:00,34.8,31.9,29.66,South,184,0.0,0.0,89,0.00,,,0.00,Wunderground v.1.15,2013-03-01 03:02:00,
2013-02-28 22:12:00,34.5,31.6,29.66,South,184,0.0,0.0,89,0.00,,,0.00,Wunderground v.1.15,2013-03-01 03:12:00,
2013-02-28 22:17:00,34.4,31.8,29.66,South,184,0.0,0.0,90,0.00,,,0.00,Wunderground v.1.15,2013-03-01 03:17:00,
2013-02-28 22:27:00,34.3,31.7,29.66,South,184,0.0,0.0,90,0.00,,,0.00,Wunderground v.1.15,2013-03-01 03:27:00,
2013-02-28 22:32:00,34.3,31.9,29.66,South,184,0.0,0.0,91,0.00,,,0.00,Wunderground v.1.15,2013-03-01 03:32:00,
2013-02-28 22:42:00,34.1,31.7,29.66,South,184,0.0,0.0,91,0.00,,,0.00,Wunderground v.1.15,2013-03-01 03:42:00,
2013-02-28 22:47:00,34.0,31.6,29.66,South,184,0.0,0.0,91,0.00,,,0.00,Wunderground v.1.15,2013-03-01 03:47:00,
2013-02-28 22:57:00,33.9,31.6,29.66,South,184,0.0,0.0,91,0.00,,,0.00,Wunderground v.1.15,2013-03-01 03:57:00,
2013-02-28 23:02:00,33.9,31.6,29.67,South,184,0.0,0.0,91,0.00,,,0.00,Wunderground v.1.15,2013-03-01 04:02:00,
2013-02-28 23:11:00,33.8,31.7,29.66,South,184,0.0,0.0,92,0.00,,,0.00,Wunderground v.1.15,2013-03-01 04:11:00,
2013-02-28 23:17:00,33.8,31.7,29.66,South,184,0.0,0.0,92,0.00,,,0.00,Wunderground v.1.15,2013-03-01 04:17:00,
2013-02-28 23:26:00,33.5,31.2,29.66,South,184,0.0,0.0,91,0.00,,,0.00,Wunderground v.1.15,2013-03-01 04:26:00,
2013-02-28 23:32:00,33.4,31.3,29.66,South,184,0.0,0.0,92,0.00,,,0.00,Wunderground v.1.15,2013-03-01 04:32:00,
2013-02-28 23:41:00,33.2,31.1,29.66,South,184,0.0,0.0,92,0.00,,,0.00,Wunderground v.1.15,2013-03-01 04:41:00,
2013-02-28 23:47:00,33.1,31.0,29.66,South,184,0.0,0.0,92,0.00,,,0.00,Wunderground v.1.15,2013-03-01 04:47:00,
2013-02-28 23:56:00,32.9,30.8,29.66,South,184,0.0,0.0,92,0.00,,,0.00,Wunderground v.1.15,2013-03-01 04:56:00,